Time,TemperatureF,DewpointF,PressureIn,WindDirection,WindDirectionDegrees,WindSpeedMPH,WindSpeedGustMPH,Humidity,HourlyPrecipIn,Conditions,Clouds,dailyrainin,SolarRadiationWatts/m^2,SoftwareType,DateUTC
2013-02-07 01:00:00,27.0,17.0,30.06,SW,233,7.0,-999.0,65,-99.99,,,-99.99,0.010000,,2013-02-07 08:00:00,
2013-02-07 01:52:00,27.0,17.0,30.06,SW,233,7.0,-999.0,65,-99.99,,,-99.99,0.010000,,2013-02-07 08:52:00,
2013-02-07 02:00:00,24.0,16.0,30.05,SW,224,5.0,-999.0,71,-99.99,,,-99.99,0.010000,,2013-02-07 09:00:00,
2013-02-07 02:52:00,24.0,16.0,30.05,SW,224,5.0,-999.0,71,-99.99,,,-99.99,0.010000,,2013-02-07 09:52:00,
2013-02-07 03:00:00,26.0,17.0,30.05,SW,229,6.0,-999.0,68,-99.99,,,-99.99,0.000000,,2013-02-07 10:00:00,
2013-02-07 03:52:00,26.0,17.0,30.05,SW,229,6.0,-999.0,68,-99.99,,,-99.99,0.000000,,2013-02-07 10:52:00,
2013-02-07 04:00:00,24.0,15.0,30.03,SW,227,5.0,-999.0,70,-99.99,,,-99.99,0.000000,,2013-02-07 11:00:00,
2013-02-07 04:52:00,24.0,15.0,30.03,SW,227,5.0,-999.0,70,-99.99,,,-99.99,0.000000,,2013-02-07 11:52:00,
2013-02-07 05:00:00,25.0,15.0,30.02,SW,214,5.0,-999.0,65,-99.99,,,-99.99,0.000000,,2013-02-07 12:00:00,
2013-02-07 05:53:00,25.0,15.0,30.02,SW,214,5.0,-999.0,65,-99.99,,,-99.99,0.000000,,2013-02-07 12:53:00,
2013-02-07 06:00:00,28.0,16.0,30.00,SSW,201,5.0,-999.0,59,-99.99,,,-99.99,0.000000,,2013-02-07 13:00:00,
2013-02-07 06:52:00,28.0,16.0,30.00,SSW,201,5.0,-999.0,59,-99.99,,,-99.99,0.000000,,2013-02-07 13:52:00,
2013-02-07 07:00:00,28.0,15.0,30.00,SSW,202,7.0,-999.0,57,-99.99,,,-99.99,0.010000,,2013-02-07 14:00:00,
2013-02-07 07:52:00,28.0,15.0,30.00,SSW,202,7.0,-999.0,57,-99.99,,,-99.99,0.010000,,2013-02-07 14:52:00,
2013-02-07 08:00:00,28.0,15.0,30.00,South,191,7.0,-999.0,56,-99.99,,,-99.99,7.990000,,2013-02-07 15:00:00,
2013-02-07 08:52:00,28.0,15.0,30.00,South,191,7.0,-999.0,56,-99.99,,,-99.99,7.990000,,2013-02-07 15:52:00,
2013-02-07 09:00:00,31.0,16.0,30.00,South,180,9.0,-999.0,53,-99.99,,,-99.99,66.160004,,2013-02-07 16:00:00,
2013-02-07 09:52:00,31.0,16.0,30.00,South,180,9.0,-999.0,53,-99.99,,,-99.99,66.160004,,2013-02-07 16:52:00,
2013-02-07 10:00:00,34.0,19.0,30.00,South,172,12.0,-999.0,54,-99.99,,,-99.99,116.800003,,2013-02-07 17:00:00,
2013-02-07 10:52:00,34.0,19.0,30.00,South,172,12.0,-999.0,54,-99.99,,,-99.99,116.800003,,2013-02-07 17:52:00,
2013-02-07 11:00:00,38.0,14.0,29.99,SSW,192,9.0,-999.0,37,-99.99,,,-99.99,109.099998,,2013-02-07 18:00:00,
2013-02-07 11:52:00,38.0,14.0,29.99,SSW,192,9.0,-999.0,37,-99.99,,,-99.99,109.099998,,2013-02-07 18:52:00,
2013-02-07 12:00:00,40.0,13.0,29.98,SSW,212,9.0,-999.0,32,-99.99,,,-99.99,183.100006,,2013-02-07 19:00:00,
2013-02-07 12:52:00,40.0,13.0,29.98,SSW,212,9.0,-999.0,32,-99.99,,,-99.99,183.100006,,2013-02-07 19:52:00,
2013-02-07 13:00:00,42.0,13.0,29.96,SSW,204,8.0,-999.0,30,-99.99,,,-99.99,189.100006,,2013-02-07 20:00:00,
2013-02-07 13:52:00,42.0,13.0,29.96,SSW,204,8.0,-999.0,30,-99.99,,,-99.99,189.100006,,2013-02-07 20:52:00,
2013-02-07 14:00:00,39.0,19.0,29.95,SSW,203,8.0,-999.0,44,-99.99,,,-99.99,183.699997,,2013-02-07 21:00:00,
2013-02-07 14:52:00,39.0,19.0,29.95,SSW,203,8.0,-999.0,44,-99.99,,,-99.99,183.699997,,2013-02-07 21:52:00,
2013-02-07 15:00:00,41.0,19.0,29.93,South,172,9.0,-999.0,41,-99.99,,,-99.99,137.699997,,2013-02-07 22:00:00,
2013-02-07 15:52:00,41.0,19.0,29.93,South,172,9.0,-999.0,41,-99.99,,,-99.99,137.699997,,2013-02-07 22:52:00,
2013-02-07 16:00:00,42.0,18.0,29.93,SSE,150,5.0,-999.0,38,-99.99,,,-99.99,111.800003,,2013-02-07 23:00:00,
2013-02-07 16:52:00,42.0,18.0,29.93,SSE,150,5.0,-999.0,38,-99.99,,,-99.99,111.800003,,2013-02-07 23:52:00,
2013-02-07 17:00:00,41.0,13.0,29.93,SW,223,6.0,-999.0,32,-99.99,,,-99.99,45.740002,,2013-02-08 00:00:00,
2013-02-07 17:52:00,41.0,13.0,29.93,SW,223,6.0,-999.0,32,-99.99,,,-99.99,45.740002,,2013-02-08 00:52:00,
2013-02-07 18:00:00,38.0,15.0,29.94,WSW,254,9.0,-999.0,37,-99.99,,,-99.99,3.770000,,2013-02-08 01:00:00,
2013-02-07 18:52:00,38.0,15.0,29.94,WSW,254,9.0,-999.0,37,-99.99,,,-99.99,3.770000,,2013-02-08 01:52:00,
2013-02-07 19:00:00,34.0,19.0,29.94,WSW,250,5.0,-999.0,52,-99.99,,,-99.99,0.160000,,2013-02-08 02:00:00,
2013-02-07 19:52:00,34.0,19.0,29.94,WSW,250,5.0,-999.0,52,-99.99,,,-99.99,0.160000,,2013-02-08 02:52:00,
2013-02-07 20:00:00,34.0,18.0,29.93,WSW,250,4.0,-999.0,50,-99.99,,,-99.99,0.140000,,2013-02-08 03:00:00,
2013-02-07 20:52:00,34.0,18.0,29.93,WSW,250,4.0,-999.0,50,-99.99,,,-99.99,0.140000,,2013-02-08 03:52:00,
2013-02-07 21:00:00,32.0,18.0,29.94,SW,221,4.0,-999.0,54,-99.99,,,-99.99,0.130000,,2013-02-08 04:00:00,
2013-02-07 21:52:00,32.0,18.0,29.94,SW,221,4.0,-999.0,54,-99.99,,,-99.99,0.130000,,2013-02-08 04:52:00,
2013-02-07 22:00:00,31.0,19.0,29.94,SW,227,4.0,-999.0,60,-99.99,,,-99.99,0.110000,,2013-02-08 05:00:00,
2013-02-07 22:52:00,31.0,19.0,29.94,SW,227,4.0,-999.0,60,-99.99,,,-99.99,0.110000,,2013-02-08 05:52:00,
2013-02-07 23:00:00,28.0,19.0,29.94,WSW,239,5.0,-999.0,68,-99.99,,,-99.99,0.100000,,2013-02-08 06:00:00,
2013-02-07 23:52:00,28.0,19.0,29.94,WSW,239,5.0,-999.0,68,-99.99,,,-99.99,0.100000,,2013-02-08 06:52:00,